User: anonymous   Login
Location: Unspecified
(0.0000°N, 0.0000°E)
Time: 13:41:52
(UTC+00:00)
Language:

NOAA 15 - Orbit

View from above orbital plane
View from above orbital plane
View from above satellite
View from above satellite

Ground track
Ground track

The orbit data is extracted from the following two-line orbital elements,

1 25338U 98030A   19294.87953591 +.00000017 +00000-0 +25918-4 0  9990
2 25338 098.7403 315.8813 0009566 235.8908 124.1365 14.25935627114837
Epoch (UTC): 21 October 2019 21:06:31
Eccentricity: 0.0009566
inclination: 98.7403°
perigee height: 798 km
apogee height: 812 km
right ascension of ascending node: 315.8813°
argument of perigee: 235.8908°
revolutions per day: 14.25935627
mean anomaly at epoch: 124.1365°
orbit number at epoch: 11483

The dashed part of the orbit path shows where the satellite is in the earth's shadow,  

DLR